loading
|
Showing default

MIDAS 4, 192

Orbit data source: Space-Track

MIDAS 4, 192 is a payload satellite owned by USAF SSD (US) that was launched on Sat, 21 Oct 1961 UTC via an ATLAS AGENA B launch vehicle from the Air Force Western Test Range (AFWTR). Payloads include a variety of satellites, spacecraft, and rockets equipped with specific instruments for various scientific and technological missions. These include communications satellites like Starlink; space stations such as the ISS; scientific satellites like the Hubble; Earth observation satellites from companies like Planet Labs, Umbra, and HawkEye 360; GPS; miniature CubeSats for education and research; and military/defense satellites.

Loading next visibility...
Loading greatness...
MIDAS 4 details
Identifier
192, 1961-028A
Orbit
Active
Last TLE update1 day ago
Origin
Flag of USUSAF SSD (US)
ManufacturerLMSC
Mission statusUnknown
MissionDefense Early Warn
Bus & MotorMIDAS, Unknown motor
Mass~1,540 kg wet, 840 kg dry
Launch date (UTC)
1961-10-21 (63 years ago)
Launch vehicle
ATLAS AGENA B
Launch site
Air Force Western Test Range (AFWTR)
Object type
Payload
Rocket body
Debris
Radar Cross Section9.3 m², Large (>1 m²)

Expand to show TLE details & history

TLE from 1 day ago
0 MIDAS 4
1 00192U 61028A   24250.49140940 -.00000020  00000-0 -72684-2 0  9996
2 00192  95.8570  87.2625 0137357 242.8067 115.8727  8.67771375991903
Epoch: 2024-09-06T11:47Z
Definitive object data (Epoch: 2024-09-06T11:47:37.772Z)
Latitude-0.00003°
Longitude-75.70806°
Altitude3,688.526 km
Speed6.274 km/s
True Right ascension05h 49m 03s
True Declination0° 00' 00"
Sunlit
Object was in daylight at TLE epoch
Predictive object data (real-time)
Latitude19.95203°
Longitude-77.56576°
Altitude3,728.808 km
Speed6.25 km/s
Apparent Right ascension03h 40m 51s
Apparent Declination-3° 54' 50"
Sunlit
Object is in daylight
Predictive observer data (real-time)
Local Sidereal Time10:31:44
Azimuth275.203° WNW
Elevation-12.257°
Doppler factor1
Orbital elements
Apogee3,760.137 km
Perigee3,485.398 km
Semi-major axis10,000.905 km
Eccentricity0.0137357
Inclination95.857°
RAAN87.2625°
Arg. of periapsis242.8067°
True anomaly117.27825°
Mean anomaly115.8727°
Eccentric anomaly116.57654°
Mean motion2.17012 °/min
BSTAR-0.0072684
Period165.89 mins
No data available

MIDAS 4 Visibility forecast

Observer location: 39.9160978°, -105.1181434

MIDAS 4 is not visible in the next 10 days
Span
Click to sort rows by Start time (UTC) header in descending order
Start Az.
Max El. time (UTC)
Max El. Az.
Max El.
End time (UTC)
End Az.